[[{"header":{"parameterUnit":"m.s-1","parameterCategory":2,"la1":30.2991,"la2":30.254,"lo1":-89.0895,"lo2":-89.0444,"dy":0.0017,"dx":0.0017,"nx":28,"ny":28,"refTime":"2023-11-01T21:00:00:Z","depth":"0","parameterNumber":2,"parameterNumberName":"U-component_of_CURRENTS"},"data":[0,0,0,0,0,0,0,0,0,0,0,0,0,0,0,0,0,0,0,0,0,0,0,0,0,0,0,0,0,0,0,0,0,0,0,0,0,0,0,0,0,0,0,0,0,0,0,0,0,0,0,0,0,0,0,0,0,0,0.1858,0.1859,0,0.1883,0.1883,0.1884,0.1887,0.1887,0.1886,0.1886,0.1885,0.1885,0.1885,0,0,0,0,0,0,0,0,0,0,0,0,0,0.1809,0.181,0.1858,0.1859,0.1859,0.1883,0.1883,0.1884,0.1887,0.1887,0.1886,0.1886,0.1885,0.1885,0.1885,0,0,0,0,0,0,0,0,0,0,0,0,0,0.183,0.181,0.1858,0.1865,0.1866,0.1883,0.1883,0.1884,0.1887,0.1887,0.1886,0.1886,0.1885,0.1885,0.1885,0.1887,0,0,0.1885,0.1885,0,0,0,0,0,0,0,0,0.1829,0.1832,0.1863,0.1864,0.1866,0.1883,0.1866,0.1884,0.1887,0.1877,0.1886,0.1886,0.1883,0.1883,0.1886,0.1887,0.1887,0.1885,0.1885,0.1885,0.1885,0,0,0,0,0,0,0,0.1828,0.1831,0.1866,0.1864,0.1865,0.1866,0.1868,0.1869,0.1878,0.1878,0.1878,0.1884,0.1883,0.1886,0.1886,0.1887,0.1885,0.1885,0.1885,0.1885,0.1924,0.1925,0,0,0,0,0,0,0.1829,0.183,0.1865,0.1867,0.1849,0.1867,0.187,0.1876,0.1879,0.188,0.1884,0.1884,0.1886,0.1886,0.1886,0.1915,0.1885,0.1885,0.1885,0.1923,0.1924,0.1925,0,0,0,0,0,0,0.1828,0.1832,0.1864,0.185,0.1855,0.1868,0.1875,0.1877,0.1884,0.1885,0.1885,0.189,0.1886,0.1886,0.1896,0.1914,0.1885,0.1885,0.1922,0.1923,0.1924,0.1956,0,0,0,0,0,0,0.1826,0.1831,0.1835,0.185,0.1856,0.1882,0.1876,0.1877,0.1888,0.1888,0.1889,0.1889,0.1886,0.1896,0.1896,0.1913,0.1885,0.192,0.1922,0.1924,0.1954,0.1959,0.1963,0,0,0,0,0,0.1824,0.1831,0.1835,0.1839,0.1861,0.1883,0.1885,0.1893,0.1888,0.1897,0.1898,0.1889,0.1908,0.1896,0.1896,0.1914,0.1919,0.1922,0.1924,0.1952,0.1958,0.1962,0,0,0,0,0,0,0.1809,0.1832,0.1837,0.1849,0.1868,0.1884,0.1892,0.1896,0.1903,0.1902,0.1897,0.1898,0.1916,0.1911,0.1898,0.1932,0.1914,0.1916,0.1935,0.1941,0.1945,0.1944,0.1885,0,0,0,0,0,0.1808,0.1821,0.1843,0.1854,0.1864,0.1878,0.1887,0.1894,0.1904,0.1907,0.1909,0.1913,0.1925,0.1928,0.1936,0.1949,0.1956,0.1963,0.1967,0.1971,0.1971,0.1998,0.2005,0.1932,0.1932,0.1932,0,0,0.1803,0.182,0.1825,0.1852,0.1866,0.1885,0.1883,0.1902,0.1916,0.1906,0.1922,0.1928,0.1933,0.1953,0.1961,0.195,0.1999,0.1974,0.1977,0.1975,0.2001,0.2008,0.2014,0.1934,0.1934,0.1933,0,0,0.1805,0.1818,0.1831,0.185,0.1878,0.1891,0.1898,0.1919,0.1927,0.1944,0.1945,0.1962,0.1971,0.1984,0.199,0.2022,0.2023,0.2027,0.2045,0.2072,0.2078,0.2083,0.2116,0.2124,0.2027,0.2027,0.2027,0,0.1796,0.1818,0.1837,0.1859,0.1874,0.1895,0.1912,0.1928,0.1948,0.1959,0.1953,0.1987,0.1988,0.2021,0.2033,0.2032,0.2048,0.2023,0.2077,0.2083,0.2088,0.212,0.2128,0.2029,0.2029,0.2028,0.2028,0,0.1811,0.1829,0.1841,0.1875,0.1894,0.1915,0.1942,0.1962,0.1972,0.1987,0.202,0.2028,0.2049,0.2056,0.2052,0.2092,0.2094,0.2081,0.2062,0.2097,0.2129,0.2137,0.2031,0.2031,0.203,0.203,0,0,0.1783,0.1839,0.1842,0.1861,0.1904,0.1921,0.1954,0.1989,0.2013,0.2034,0.2063,0.2087,0.2095,0.2103,0.2108,0.2126,0.2178,0.2118,0.2118,0.2148,0.2246,0.2284,0.2297,0.2174,0.2175,0.2176,0.2259,0,0.1787,0.1827,0.1853,0.1887,0.1911,0.1944,0.1975,0.2009,0.2036,0.2071,0.2093,0.2124,0.2113,0.213,0.2149,0.2174,0.2198,0.2157,0.221,0.2212,0.2239,0.2307,0.2289,0.2365,0.2267,0.2268,0.2269,0,0.1787,0.1818,0.1851,0.1903,0.1916,0.1937,0.1991,0.2021,0.2078,0.2102,0.2139,0.216,0.2206,0.2182,0.2247,0.2223,0.2237,0.2248,0.2251,0.2279,0.2265,0.2312,0.2383,0.2352,0.2281,0.228,0.228,0,0.1758,0.1811,0.1836,0.1854,0.1917,0.1935,0.1968,0.2026,0.2058,0.2123,0.2159,0.221,0.2249,0.2273,0.2314,0.2283,0.2382,0.2342,0.239,0.2392,0.2384,0.2384,0.2428,0.238,0.238,0.238,0.238,0,0.1747,0.1765,0.1824,0.1838,0.1868,0.1919,0.1955,0.2,0.2068,0.2118,0.217,0.2232,0.2272,0.2336,0.2345,0.2418,0.2416,0.2414,0.2424,0.2397,0.2398,0.2374,0.235,0.2383,0.2382,0.2382,0.2381,0,0.1702,0.1744,0.1773,0.1836,0.1852,0.1869,0.1937,0.1971,0.2048,0.2118,0.2145,0.2262,0.2366,0.2411,0.2476,0.2477,0.2482,0.2541,0.2516,0.2522,0.2524,0.2502,0.2452,0.2362,0.2606,0.2607,0.2609,0,0.168,0.1694,0.1751,0.1766,0.1789,0.1827,0.1858,0.1941,0.1987,0.2144,0.218,0.2318,0.2408,0.2544,0.2601,0.2659,0.255,0.2649,0.2581,0.2548,0.2531,0.24,0.2315,0.2585,0.2586,0.2586,0.2587,0,0.1635,0.1655,0.1681,0.1715,0.1742,0.1777,0.1834,0.1863,0.198,0.206,0.2197,0.2289,0.2481,0.2573,0.2677,0.2698,0.2561,0.2668,0.2636,0.2533,0.2391,0.2301,0.2507,0.2594,0.2594,0.2593,0.2593,0.2592,0.1591,0.1595,0.1632,0.1659,0.1689,0.172,0.1726,0.1809,0.188,0.1998,0.215,0.2284,0.2503,0.2674,0.2682,0.2731,0.2631,0.267,0.2653,0.2527,0.2418,0.2655,0.2751,0.2751,0.2751,0.2751,0.2751,0,0.1533,0.1553,0.1577,0.1601,0.1608,0.1653,0.1703,0.171,0.1766,0.1943,0.2064,0.2328,0.2475,0.2622,0.2796,0.2738,0.2558,0.2663,0.2468,0.2385,0.2623,0.2602,0.2668,0.2668,0.2668,0.2668,0.2668,0.2668,0.1503,0.1505,0.1523,0.1514,0.1532,0.1516,0.1528,0.1563,0.1668,0.1835,0.2008,0.219,0.2521,0.2824,0.2865,0.2775,0.252,0.2453,0.2359,0.2558,0.2555,0.2553,0.2527,0.2577,0.2576,0.2027,0.2023,0.2021]},{"header":{"parameterUnit":"m.s-1","parameterCategory":2,"la1":30.2991,"la2":30.254,"lo1":-89.0895,"lo2":-89.0444,"dy":0.0017,"dx":0.0017,"nx":28,"ny":28,"refTime":"2023-11-01T21:00:00:Z","depth":"0","parameterNumber":3,"parameterNumberName":"V-component_of_CURRENTS"},"data":[0,0,0,0,0,0,0,0,0,0,0,0,0,0,0,0,0,0,0,0,0,0,0,0,0,0,0,0,0,0,0,0,0,0,0,0,0,0,0,0,0,0,0,0,0,0,0,0,0,0,0,0,0,0,0,0,0,0,-0.0342,-0.0343,0,-0.0399,-0.0399,-0.04,-0.0435,-0.0435,-0.0435,-0.0436,-0.052,-0.0522,-0.0524,0,0,0,0,0,0,0,0,0,0,0,0,0,-0.0303,-0.0303,-0.0342,-0.0343,-0.0343,-0.0399,-0.0399,-0.04,-0.0435,-0.0435,-0.0435,-0.0436,-0.0519,-0.0522,-0.0524,0,0,0,0,0,0,0,0,0,0,0,0,0,-0.0336,-0.0303,-0.0342,-0.0367,-0.037,-0.0398,-0.0399,-0.04,-0.0435,-0.0435,-0.0435,-0.0436,-0.0518,-0.0521,-0.0524,-0.0539,0,0,-0.0534,-0.0535,0,0,0,0,0,0,0,0,-0.0334,-0.0338,-0.0363,-0.0365,-0.0369,-0.041,-0.0417,-0.0448,-0.0435,-0.0411,-0.0436,-0.0436,-0.0485,-0.0491,-0.0501,-0.0543,-0.0547,-0.0534,-0.0536,-0.0538,-0.0538,0,0,0,0,0,0,0,-0.0332,-0.0336,-0.0365,-0.0363,-0.0367,-0.0389,-0.0394,-0.0423,-0.0447,-0.0413,-0.0415,-0.0421,-0.0487,-0.0498,-0.0504,-0.0548,-0.0534,-0.0537,-0.0539,-0.054,-0.0609,-0.0609,0,0,0,0,0,0,-0.0322,-0.0333,-0.0363,-0.0367,-0.0351,-0.0389,-0.0395,-0.0397,-0.0446,-0.0453,-0.0421,-0.0422,-0.0493,-0.05,-0.0507,-0.052,-0.0538,-0.0541,-0.0542,-0.0609,-0.0609,-0.0609,0,0,0,0,0,0,-0.0321,-0.0324,-0.0361,-0.0351,-0.0357,-0.0389,-0.0392,-0.0398,-0.0409,-0.0452,-0.046,-0.0426,-0.0493,-0.0502,-0.0532,-0.0524,-0.0542,-0.0545,-0.0609,-0.0609,-0.0609,-0.0551,0,0,0,0,0,0,-0.0319,-0.0323,-0.032,-0.035,-0.0357,-0.0373,-0.0392,-0.0399,-0.0412,-0.0414,-0.0459,-0.0467,-0.0494,-0.0527,-0.0535,-0.0528,-0.0547,-0.0609,-0.0609,-0.0609,-0.0553,-0.0549,-0.0546,0,0,0,0,0,-0.0317,-0.0311,-0.0319,-0.0323,-0.0352,-0.0373,-0.0379,-0.0403,-0.0412,-0.0414,-0.0445,-0.0465,-0.0532,-0.0529,-0.0539,-0.0533,-0.0609,-0.0609,-0.0609,-0.0555,-0.055,-0.0546,0,0,0,0,0,0,-0.0292,-0.0314,-0.0325,-0.0325,-0.0345,-0.0379,-0.0382,-0.0399,-0.0425,-0.0427,-0.0468,-0.0478,-0.0501,-0.0527,-0.0523,-0.0553,-0.0573,-0.0575,-0.0528,-0.0524,-0.052,-0.0499,-0.055,0,0,0,0,0,-0.0284,-0.0285,-0.0312,-0.0312,-0.032,-0.035,-0.0361,-0.0377,-0.0404,-0.0416,-0.0447,-0.0479,-0.0507,-0.0523,-0.0553,-0.057,-0.0592,-0.0573,-0.0569,-0.0565,-0.0555,-0.058,-0.0577,-0.0609,-0.0609,-0.0609,0,0,-0.0275,-0.0287,-0.0288,-0.0307,-0.0324,-0.0328,-0.0357,-0.0369,-0.0372,-0.0421,-0.0435,-0.0469,-0.051,-0.0529,-0.0541,-0.0549,-0.0569,-0.0565,-0.0562,-0.0553,-0.058,-0.0576,-0.0574,-0.0608,-0.0609,-0.0609,0,0,-0.0252,-0.0265,-0.0257,-0.0271,-0.0292,-0.031,-0.0311,-0.0342,-0.0354,-0.0375,-0.0409,-0.0435,-0.0481,-0.0504,-0.0523,-0.0517,-0.0549,-0.0529,-0.0491,-0.0516,-0.0513,-0.0511,-0.0535,-0.0536,-0.0525,-0.0525,-0.0525,0,-0.0238,-0.0233,-0.0259,-0.0255,-0.0259,-0.0297,-0.0289,-0.0308,-0.0345,-0.035,-0.0371,-0.0429,-0.0466,-0.0484,-0.0482,-0.0506,-0.0527,-0.0503,-0.0509,-0.0508,-0.0506,-0.0532,-0.0533,-0.0522,-0.0523,-0.0523,-0.0523,0,-0.0212,-0.0208,-0.0204,-0.021,-0.0218,-0.0219,-0.0246,-0.0256,-0.0277,-0.0298,-0.0323,-0.0375,-0.0406,-0.0424,-0.0453,-0.0461,-0.0481,-0.0502,-0.0516,-0.0499,-0.0528,-0.053,-0.0518,-0.0519,-0.052,-0.0521,0,0,-0.0175,-0.0183,-0.0181,-0.0171,-0.0193,-0.0192,-0.0197,-0.0208,-0.0202,-0.0246,-0.0243,-0.0298,-0.0326,-0.0349,-0.0391,-0.0414,-0.0428,-0.0448,-0.0451,-0.0464,-0.0482,-0.0488,-0.0491,-0.0451,-0.0451,-0.0451,-0.0506,0,-0.0144,-0.0123,-0.0137,-0.0112,-0.0102,-0.0131,-0.0128,-0.0143,-0.0166,-0.0176,-0.0228,-0.0247,-0.0298,-0.0312,-0.0342,-0.0406,-0.0432,-0.0411,-0.0504,-0.0507,-0.0506,-0.0493,-0.049,-0.0538,-0.0509,-0.0509,-0.0509,0,-0.011,-0.01,-0.007,-0.0057,-0.0053,-0.0046,-0.004,-0.0045,-0.0072,-0.0091,-0.0122,-0.0164,-0.0205,-0.0252,-0.0343,-0.0329,-0.0396,-0.0449,-0.0453,-0.0477,-0.0516,-0.0552,-0.0544,-0.0699,-0.0513,-0.0513,-0.0513,0,-0.0064,-0.0048,-0.0019,-0.0016,-0.0012,0.0,-0.0001,-0.0017,-0.0006,-0.0038,-0.0034,-0.0098,-0.0121,-0.0212,-0.0318,-0.0332,-0.0417,-0.0455,-0.0524,-0.0526,-0.055,-0.0554,-0.0694,-0.0516,-0.0516,-0.0516,-0.0516,0,-0.0023,0.0002,0.0006,0.0022,0.0063,0.0047,0.0081,0.0068,0.0064,0.0095,0.0015,0.0025,-0.0111,-0.0175,-0.0288,-0.0403,-0.0396,-0.051,-0.0536,-0.0531,-0.0532,-0.0689,-0.0784,-0.0518,-0.0517,-0.0517,-0.0517,0,0.0023,0.0022,0.006,0.0075,0.0085,0.0112,0.0137,0.0164,0.0145,0.0183,0.018,0.0122,0.0039,-0.0099,-0.0241,-0.0352,-0.0567,-0.0516,-0.0498,-0.0522,-0.0734,-0.0825,-0.1008,-0.1082,-0.0607,-0.0607,-0.0607,0,0.0049,0.0072,0.0105,0.0132,0.0142,0.0175,0.0204,0.0202,0.0237,0.0253,0.0285,0.0221,0.0197,-0.0022,-0.0229,-0.0425,-0.058,-0.056,-0.059,-0.0738,-0.0861,-0.0942,-0.0996,-0.0607,-0.0608,-0.0608,-0.0608,0,0.0101,0.011,0.014,0.0193,0.0232,0.0277,0.0319,0.0365,0.0381,0.0415,0.046,0.0446,0.0246,0.0059,-0.0217,-0.0369,-0.0686,-0.0571,-0.0735,-0.0876,-0.0965,-0.1049,-0.0583,-0.061,-0.061,-0.061,-0.061,-0.061,0.0143,0.0172,0.021,0.0262,0.031,0.0378,0.0426,0.0488,0.0561,0.0637,0.0613,0.0622,0.0319,-0.0055,-0.0279,-0.0702,-0.0718,-0.0827,-0.0927,-0.0995,-0.1067,-0.0599,-0.0649,-0.0649,-0.0649,-0.0649,-0.0649,0,0.0196,0.0225,0.0277,0.0339,0.04,0.0413,0.0507,0.0564,0.0668,0.075,0.0794,0.0658,0.0279,-0.0114,-0.0668,-0.0981,-0.1125,-0.1171,-0.1298,-0.1336,-0.0925,-0.0925,-0.1024,-0.1024,-0.1024,-0.1024,-0.1023,-0.1023,0.0226,0.0283,0.0305,0.0407,0.0453,0.0542,0.0601,0.0695,0.077,0.0869,0.0896,0.0886,0.0577,-0.0457,-0.1165,-0.1343,-0.1603,-0.1666,-0.1787,-0.1519,-0.1495,-0.1472,-0.1494,-0.1711,-0.1712,-0.2153,-0.2158,-0.2161]}],[{"header":{"parameterUnit":"m.s-1","parameterCategory":2,"la1":30.2991,"la2":30.254,"lo1":-89.0895,"lo2":-89.0444,"dy":0.0017,"dx":0.0017,"nx":28,"ny":28,"refTime":"2023-11-01T21:00:00:Z","depth":"2","parameterNumber":2,"parameterNumberName":"U-component_of_CURRENTS"},"data":[0,0,0,0,0,0,0,0,0,0,0,0,0,0,0,0,0,0,0,0,0,0,0,0,0,0,0,0,0,0,0,0,0,0,0,0,0,0,0,0,0,0,0,0,0,0,0,0,0,0,0,0,0,0,0,0,0,0,0.1873,0.1873,0,0.19,0.19,0.19,0.1904,0.1904,0.1904,0.1904,0.1911,0.1911,0.1912,0,0,0,0,0,0,0,0,0,0,0,0,0,0.1824,0.1825,0.1873,0.1873,0.1874,0.19,0.19,0.19,0.1904,0.1904,0.1904,0.1904,0.1911,0.1911,0.1912,0,0,0,0,0,0,0,0,0,0,0,0,0,0.1846,0.1825,0.1873,0.188,0.1881,0.19,0.19,0.19,0.1904,0.1904,0.1904,0.1904,0.1911,0.1911,0.1912,0.1917,0,0,0.1913,0.1913,0,0,0,0,0,0,0,0,0.1845,0.1847,0.1879,0.188,0.1881,0.19,0.1885,0.1905,0.1904,0.1894,0.1904,0.1904,0.1907,0.1908,0.1911,0.1917,0.1917,0.1913,0.1913,0.1913,0.1914,0,0,0,0,0,0,0,0.1843,0.1846,0.1882,0.1879,0.1881,0.1882,0.1885,0.1889,0.1899,0.1895,0.1896,0.1901,0.1907,0.191,0.1911,0.1917,0.1913,0.1913,0.1914,0.1914,0.1964,0.1965,0,0,0,0,0,0,0.1844,0.1845,0.1881,0.1883,0.1864,0.1883,0.1886,0.1893,0.1899,0.1901,0.1901,0.1901,0.191,0.191,0.1911,0.1945,0.1913,0.1914,0.1914,0.1963,0.1964,0.1966,0,0,0,0,0,0,0.1842,0.1847,0.188,0.1866,0.187,0.1884,0.1891,0.1893,0.1901,0.1905,0.1906,0.1908,0.191,0.1911,0.1925,0.1944,0.1914,0.1914,0.1962,0.1964,0.1965,0.1995,0,0,0,0,0,0,0.1841,0.1846,0.185,0.1866,0.1871,0.1898,0.1892,0.1894,0.1906,0.1906,0.1911,0.1911,0.191,0.1924,0.1925,0.1944,0.1915,0.196,0.1963,0.1965,0.1992,0.1997,0.2001,0,0,0,0,0,0.1839,0.1846,0.185,0.1855,0.1877,0.1899,0.1902,0.191,0.1906,0.1915,0.1919,0.1911,0.1938,0.1925,0.1926,0.1946,0.1959,0.1962,0.1964,0.199,0.1996,0.2001,0,0,0,0,0,0,0.1825,0.1848,0.1853,0.1866,0.1885,0.19,0.191,0.1913,0.1923,0.1923,0.1921,0.1922,0.1945,0.1941,0.1927,0.1968,0.1949,0.1952,0.1969,0.1974,0.1979,0.1975,0.1915,0,0,0,0,0,0.1825,0.1838,0.186,0.1871,0.1882,0.1896,0.1905,0.1913,0.1924,0.1928,0.1932,0.194,0.1956,0.1961,0.1972,0.1988,0.1994,0.2004,0.2008,0.2012,0.2011,0.2036,0.2043,0.1974,0.1974,0.1974,0,0,0.1821,0.1837,0.1843,0.1869,0.1884,0.1903,0.1901,0.1921,0.1936,0.1928,0.1947,0.1956,0.1965,0.1989,0.1998,0.1987,0.2039,0.2015,0.2018,0.2015,0.204,0.2046,0.2052,0.1976,0.1975,0.1975,0,0,0.1824,0.1838,0.1851,0.187,0.1897,0.191,0.1917,0.1939,0.1948,0.1968,0.1972,0.1992,0.2006,0.2021,0.2029,0.2064,0.2064,0.2071,0.2087,0.2113,0.2118,0.2123,0.2153,0.216,0.2071,0.2071,0.2071,0,0.1817,0.1839,0.1858,0.1879,0.1895,0.1914,0.1932,0.1949,0.1971,0.1983,0.1978,0.2018,0.2023,0.2058,0.2071,0.2074,0.2088,0.2064,0.2118,0.2123,0.2127,0.2157,0.2164,0.2073,0.2072,0.2072,0.2072,0,0.1832,0.1851,0.1863,0.1896,0.1915,0.1936,0.1964,0.1984,0.1997,0.2011,0.2048,0.206,0.2084,0.2093,0.209,0.2132,0.2133,0.2122,0.2101,0.2136,0.2165,0.2172,0.2075,0.2074,0.2074,0.2074,0,0,0.1807,0.1862,0.1864,0.1884,0.1926,0.1943,0.1977,0.2013,0.2037,0.2059,0.2089,0.2118,0.2127,0.2137,0.2145,0.2162,0.221,0.2155,0.2155,0.218,0.2274,0.2299,0.231,0.2208,0.2209,0.221,0.2286,0,0.1812,0.1851,0.1877,0.1911,0.1934,0.1967,0.1998,0.2033,0.2061,0.2097,0.212,0.2153,0.2145,0.2163,0.2181,0.2208,0.2229,0.2191,0.2241,0.2242,0.2256,0.2319,0.2146,0.2202,0.2293,0.2295,0.2295,0,0.1812,0.1842,0.1875,0.1927,0.1939,0.1961,0.2015,0.2045,0.2102,0.2127,0.2164,0.2187,0.2233,0.2211,0.2274,0.2251,0.2264,0.2275,0.2278,0.2294,0.2281,0.218,0.2212,0.2308,0.2307,0.2306,0.2305,0,0.1783,0.1836,0.1862,0.1879,0.1941,0.196,0.1993,0.205,0.2082,0.2148,0.2183,0.2234,0.2273,0.2296,0.2335,0.2307,0.2399,0.2363,0.2397,0.2399,0.2258,0.2246,0.2398,0.2398,0.2397,0.2397,0.2397,0,0.1773,0.1792,0.185,0.1864,0.1894,0.1944,0.1981,0.2025,0.2093,0.2141,0.2195,0.2254,0.2295,0.2355,0.2364,0.2426,0.243,0.2418,0.2427,0.2267,0.2256,0.2343,0.2335,0.24,0.2399,0.2399,0.2398,0,0.1729,0.177,0.1799,0.1862,0.1878,0.1896,0.1964,0.1998,0.2074,0.2142,0.2169,0.2283,0.2379,0.2423,0.2483,0.248,0.2521,0.2533,0.2354,0.2342,0.2491,0.2484,0.2577,0.2579,0.258,0.2581,0.2582,0,0.1709,0.1722,0.1778,0.1794,0.1817,0.1856,0.1887,0.1969,0.2013,0.2165,0.22,0.233,0.241,0.2532,0.2562,0.2606,0.2591,0.2455,0.237,0.2514,0.2513,0.2504,0.2495,0.2191,0.2189,0.2187,0.2185,0,0.1665,0.1685,0.1711,0.1745,0.1772,0.1807,0.1863,0.1891,0.2005,0.2082,0.2209,0.2291,0.2448,0.2444,0.2525,0.2516,0.2436,0.2422,0.2617,0.2189,0.216,0.2156,0.2158,0.2169,0.217,0.2171,0.2172,0.2173,0.1623,0.1627,0.1664,0.169,0.172,0.175,0.1757,0.1834,0.1899,0.1995,0.2139,0.2208,0.2289,0.2346,0.2313,0.2294,0.2446,0.2313,0.2313,0.2317,0.2275,0.2252,0.227,0.2272,0.2274,0.2276,0.2277,0,0.1566,0.1587,0.1611,0.1635,0.164,0.1686,0.1734,0.1734,0.1779,0.1902,0.1996,0.1931,0.1972,0.2031,0.2002,0.2046,0.1964,0.1944,0.1801,0.1823,0.1841,0.1768,0.1632,0.1629,0.1627,0.1624,0,0,0.1537,0.1538,0.1556,0.1546,0.1565,0.1549,0.156,0.1579,0.1642,0.1672,0.1706,0.1886,0.1997,0.1777,0.1786,0.1694,0.1726,0.1636,0.2167,0.2022,0.2036,0.209,0.2009,0,0,0,0,0]},{"header":{"parameterUnit":"m.s-1","parameterCategory":2,"la1":30.2991,"la2":30.254,"lo1":-89.0895,"lo2":-89.0444,"dy":0.0017,"dx":0.0017,"nx":28,"ny":28,"refTime":"2023-11-01T21:00:00:Z","depth":"2","parameterNumber":3,"parameterNumberName":"V-component_of_CURRENTS"},"data":[0,0,0,0,0,0,0,0,0,0,0,0,0,0,0,0,0,0,0,0,0,0,0,0,0,0,0,0,0,0,0,0,0,0,0,0,0,0,0,0,0,0,0,0,0,0,0,0,0,0,0,0,0,0,0,0,0,0,-0.0217,-0.0217,0,-0.0268,-0.0269,-0.0269,-0.0305,-0.0305,-0.0305,-0.0306,-0.0385,-0.0386,-0.0388,0,0,0,0,0,0,0,0,0,0,0,0,0,-0.0185,-0.0185,-0.0217,-0.0218,-0.0218,-0.0268,-0.0269,-0.0269,-0.0305,-0.0305,-0.0305,-0.0306,-0.0384,-0.0386,-0.0388,0,0,0,0,0,0,0,0,0,0,0,0,0,-0.0214,-0.0185,-0.0217,-0.0242,-0.0244,-0.0268,-0.0269,-0.027,-0.0305,-0.0305,-0.0305,-0.0306,-0.0383,-0.0386,-0.0389,-0.0399,0,0,-0.0397,-0.0399,0,0,0,0,0,0,0,0,-0.0212,-0.0215,-0.0237,-0.024,-0.0243,-0.028,-0.0286,-0.0314,-0.0305,-0.0282,-0.0306,-0.0306,-0.0352,-0.0357,-0.0366,-0.0403,-0.0406,-0.0398,-0.0399,-0.0401,-0.0401,0,0,0,0,0,0,0,-0.021,-0.0213,-0.0237,-0.0238,-0.0241,-0.0262,-0.0266,-0.0292,-0.0315,-0.0284,-0.0287,-0.0292,-0.0354,-0.0363,-0.0368,-0.0407,-0.0398,-0.04,-0.0402,-0.0403,-0.0469,-0.0469,0,0,0,0,0,0,-0.0201,-0.0211,-0.0236,-0.0239,-0.0228,-0.0262,-0.0267,-0.0268,-0.0314,-0.0321,-0.0291,-0.0293,-0.0358,-0.0365,-0.0371,-0.0386,-0.0401,-0.0403,-0.0405,-0.0469,-0.0469,-0.0469,0,0,0,0,0,0,-0.02,-0.0202,-0.0234,-0.0226,-0.0232,-0.0262,-0.0263,-0.0269,-0.0281,-0.0319,-0.0327,-0.0298,-0.0359,-0.0367,-0.0395,-0.039,-0.0404,-0.0407,-0.0469,-0.0469,-0.0469,-0.0416,0,0,0,0,0,0,-0.0198,-0.0201,-0.0199,-0.0225,-0.0232,-0.0245,-0.0263,-0.027,-0.0283,-0.0286,-0.0328,-0.0335,-0.036,-0.039,-0.0398,-0.0394,-0.0409,-0.0469,-0.0469,-0.0469,-0.0418,-0.0414,-0.0411,0,0,0,0,0,-0.0197,-0.019,-0.0199,-0.0202,-0.0227,-0.0244,-0.0249,-0.0273,-0.0283,-0.0286,-0.0315,-0.0334,-0.0396,-0.0393,-0.0401,-0.0398,-0.0469,-0.0469,-0.0469,-0.0419,-0.0415,-0.0412,0,0,0,0,0,0,-0.0175,-0.0194,-0.0204,-0.0203,-0.0221,-0.025,-0.0254,-0.0271,-0.0295,-0.0299,-0.0336,-0.0345,-0.0368,-0.0392,-0.0387,-0.0419,-0.0436,-0.0437,-0.0395,-0.0391,-0.0388,-0.0368,-0.0412,0,0,0,0,0,-0.0168,-0.0168,-0.0192,-0.0191,-0.0198,-0.0226,-0.0236,-0.0251,-0.0276,-0.0288,-0.0317,-0.0348,-0.0375,-0.0389,-0.0417,-0.0434,-0.0454,-0.0438,-0.0435,-0.0432,-0.0422,-0.0448,-0.0446,-0.047,-0.047,-0.047,0,0,-0.016,-0.017,-0.0171,-0.0187,-0.0202,-0.0205,-0.0233,-0.0244,-0.0247,-0.0293,-0.0306,-0.034,-0.0378,-0.0396,-0.0408,-0.0415,-0.0437,-0.0432,-0.0429,-0.0421,-0.0448,-0.0445,-0.0443,-0.047,-0.047,-0.047,0,0,-0.014,-0.0151,-0.0143,-0.0155,-0.0174,-0.019,-0.0191,-0.0219,-0.0232,-0.0251,-0.0284,-0.0311,-0.0353,-0.0375,-0.0393,-0.039,-0.0421,-0.0403,-0.0368,-0.0394,-0.0392,-0.039,-0.0414,-0.0415,-0.04,-0.0399,-0.0399,0,-0.0128,-0.0122,-0.0145,-0.014,-0.0143,-0.0179,-0.017,-0.0188,-0.0222,-0.0228,-0.0249,-0.0306,-0.034,-0.0358,-0.0358,-0.0381,-0.0401,-0.0377,-0.0388,-0.0387,-0.0386,-0.0411,-0.0413,-0.0397,-0.0397,-0.0397,-0.0398,0,-0.0103,-0.0099,-0.0096,-0.0099,-0.0105,-0.0106,-0.0129,-0.014,-0.0162,-0.0181,-0.0207,-0.0256,-0.0287,-0.0306,-0.0332,-0.0343,-0.0361,-0.0381,-0.0392,-0.038,-0.0408,-0.0411,-0.0393,-0.0394,-0.0395,-0.0396,0,0,-0.0072,-0.0076,-0.0074,-0.0064,-0.0083,-0.0081,-0.0085,-0.0094,-0.009,-0.0133,-0.0133,-0.0186,-0.0214,-0.0236,-0.0276,-0.03,-0.0317,-0.0333,-0.0336,-0.0348,-0.0373,-0.0382,-0.0386,-0.0339,-0.0339,-0.0339,-0.0395,0,-0.0044,-0.0022,-0.0033,-0.0009,0.0002,-0.0024,-0.0021,-0.0035,-0.0057,-0.0068,-0.0118,-0.0139,-0.0187,-0.0203,-0.0233,-0.0295,-0.0322,-0.03,-0.0391,-0.0394,-0.0395,-0.0388,-0.0362,-0.0409,-0.0398,-0.0398,-0.0399,0,-0.0012,-0.0001,0.0028,0.0043,0.0047,0.0054,0.006,0.0056,0.0029,0.001,-0.0022,-0.0062,-0.0104,-0.0149,-0.0239,-0.0224,-0.029,-0.0342,-0.0346,-0.0371,-0.0407,-0.0421,-0.0415,-0.0404,-0.0403,-0.0403,-0.0402,0,0.0028,0.0046,0.0074,0.0077,0.0084,0.0095,0.0095,0.008,0.0091,0.0058,0.0061,-0.0002,-0.0027,-0.0116,-0.022,-0.0232,-0.0319,-0.0352,-0.0422,-0.0424,-0.0428,-0.0429,-0.0413,-0.0413,-0.0413,-0.0413,-0.0413,0,0.0065,0.0089,0.0095,0.0111,0.015,0.0137,0.0168,0.0156,0.0153,0.0182,0.0105,0.0113,-0.002,-0.0084,-0.0193,-0.0307,-0.03,-0.041,-0.0436,-0.041,-0.0409,-0.0425,-0.0425,-0.0415,-0.0415,-0.0414,-0.0414,0,0.0105,0.0107,0.0143,0.016,0.017,0.0195,0.022,0.0245,0.0227,0.0262,0.0259,0.0202,0.0117,-0.0017,-0.0157,-0.0262,-0.038,-0.0424,-0.0382,-0.0402,-0.0478,-0.0475,-0.0513,-0.0513,-0.0514,-0.0514,-0.0515,0,0.0128,0.015,0.0184,0.021,0.022,0.0251,0.0279,0.0279,0.0313,0.0327,0.0357,0.029,0.0261,0.0046,-0.0152,-0.0342,-0.0371,-0.0449,-0.0471,-0.0465,-0.0487,-0.0483,-0.048,-0.0461,-0.0461,-0.046,-0.046,0,0.0175,0.0184,0.0214,0.0265,0.0303,0.0347,0.0388,0.0432,0.0449,0.0478,0.0518,0.0498,0.0302,0.012,-0.0147,-0.0278,-0.0419,-0.0455,-0.0456,-0.0435,-0.042,-0.044,-0.0438,-0.046,-0.046,-0.046,-0.046,-0.046,0.0212,0.024,0.0277,0.0327,0.0374,0.044,0.0486,0.0544,0.0612,0.0673,0.065,0.0624,0.0411,0.0077,-0.0156,-0.0412,-0.041,-0.0499,-0.0498,-0.0497,-0.0477,-0.0463,-0.0507,-0.0508,-0.0508,-0.0508,-0.0508,0,0.026,0.0287,0.0338,0.0398,0.0457,0.0471,0.0562,0.0612,0.0704,0.0755,0.0784,0.0608,0.0393,0.0139,-0.0235,-0.0459,-0.0479,-0.0528,-0.0501,-0.0499,-0.0498,-0.0478,-0.0509,-0.051,-0.0511,-0.0511,0,0,0.0287,0.0341,0.0363,0.046,0.0504,0.0589,0.0645,0.0723,0.0772,0.0829,0.0825,0.0784,0.0474,0.0214,-0.0089,-0.0304,-0.0355,-0.0348,-0.0324,-0.0256,-0.0252,-0.0458,-0.0422,0,0,0,0,0]}],[{"header":{"parameterUnit":"m.s-1","parameterCategory":2,"la1":30.2991,"la2":30.254,"lo1":-89.0895,"lo2":-89.0444,"dy":0.0017,"dx":0.0017,"nx":28,"ny":28,"refTime":"2023-11-01T21:00:00:Z","depth":"4","parameterNumber":2,"parameterNumberName":"U-component_of_CURRENTS"},"data":[0,0,0,0,0,0,0,0,0,0,0,0,0,0,0,0,0,0,0,0,0,0,0,0,0,0,0,0,0,0,0,0,0,0,0,0,0,0,0,0,0,0,0,0,0,0,0,0,0,0,0,0,0,0,0,0,0,0,0.1293,0.1294,0,0.1336,0.1337,0.1337,0.1379,0.138,0.1381,0.1381,0.143,0.143,0.1431,0,0,0,0,0,0,0,0,0,0,0,0,0,0.1228,0.1229,0.1293,0.1294,0.1295,0.1336,0.1337,0.1337,0.1379,0.138,0.1381,0.1382,0.143,0.143,0.1431,0,0,0,0,0,0,0,0,0,0,0,0,0,0.1261,0.123,0.1293,0.1322,0.1325,0.1336,0.1337,0.1337,0.1379,0.138,0.1381,0.1382,0.1429,0.143,0.1431,0.1415,0,0,0.1434,0.1434,0,0,0,0,0,0,0,0,0.1259,0.1263,0.1317,0.132,0.1324,0.1355,0.1332,0.1364,0.1379,0.1356,0.1381,0.1383,0.1406,0.1409,0.1412,0.1417,0.1419,0.1434,0.1435,0.1435,0.1435,0,0,0,0,0,0,0,0.1256,0.1261,0.1308,0.1318,0.1322,0.1326,0.1332,0.1338,0.1373,0.1358,0.1362,0.1369,0.1407,0.1411,0.1413,0.142,0.1434,0.1435,0.1435,0.1436,0.1493,0.1494,0,0,0,0,0,0,0.1255,0.1259,0.1307,0.131,0.1295,0.1327,0.1333,0.1342,0.1373,0.1379,0.1369,0.1371,0.1408,0.1412,0.1415,0.1477,0.1435,0.1436,0.1436,0.1492,0.1493,0.1494,0,0,0,0,0,0,0.1253,0.1259,0.1305,0.1287,0.1293,0.1327,0.1337,0.1343,0.1375,0.1381,0.1387,0.1398,0.1409,0.1414,0.1447,0.1477,0.1436,0.1437,0.1491,0.1492,0.1494,0.1551,0,0,0,0,0,0,0.1251,0.1258,0.1275,0.1287,0.1294,0.1331,0.1336,0.1343,0.1376,0.1381,0.1408,0.1412,0.1411,0.1446,0.1448,0.1477,0.1438,0.149,0.1491,0.1493,0.1548,0.1554,0.156,0,0,0,0,0,0.1249,0.1263,0.1276,0.1282,0.1313,0.1331,0.1336,0.1362,0.1377,0.1394,0.1416,0.1412,0.1459,0.1448,0.145,0.148,0.1489,0.1491,0.1493,0.1545,0.1553,0.156,0,0,0,0,0,0,0.1243,0.1269,0.1283,0.1306,0.1327,0.134,0.1362,0.1376,0.1405,0.1419,0.1424,0.143,0.1471,0.1464,0.1451,0.1501,0.1473,0.1476,0.1512,0.152,0.1525,0.1529,0.1439,0,0,0,0,0,0.125,0.1272,0.1292,0.1314,0.1327,0.1349,0.1365,0.1383,0.1404,0.142,0.1439,0.1457,0.1475,0.149,0.1502,0.1527,0.1529,0.1547,0.1553,0.1558,0.1562,0.1591,0.16,0.1501,0.1501,0.1501,0,0,0.1254,0.1273,0.1286,0.1316,0.1336,0.1357,0.1363,0.1395,0.142,0.1419,0.1467,0.1481,0.1486,0.152,0.1537,0.1523,0.1589,0.1561,0.1565,0.1566,0.1594,0.1604,0.1612,0.1503,0.1502,0.1502,0,0,0.1264,0.1293,0.1312,0.1333,0.1369,0.1381,0.1396,0.1426,0.1452,0.1489,0.15,0.1533,0.1557,0.1571,0.1578,0.1621,0.162,0.1628,0.1662,0.169,0.1699,0.1706,0.1729,0.1738,0.163,0.163,0.163,0,0.1271,0.1298,0.1321,0.1344,0.1367,0.1395,0.1419,0.1443,0.1483,0.1507,0.1515,0.1571,0.158,0.1619,0.1639,0.1636,0.165,0.1636,0.1699,0.1706,0.1713,0.1734,0.1744,0.1633,0.1633,0.1632,0.1632,0,0.1287,0.132,0.1335,0.1375,0.1399,0.1428,0.1461,0.1498,0.1532,0.1554,0.1613,0.1631,0.1665,0.1675,0.1672,0.1726,0.1721,0.1705,0.1683,0.1727,0.1746,0.1755,0.1637,0.1636,0.1635,0.1635,0,0,0.1269,0.1334,0.1343,0.1371,0.1422,0.1441,0.149,0.1535,0.1575,0.162,0.1669,0.1709,0.1731,0.174,0.1749,0.1774,0.1838,0.1767,0.1767,0.1792,0.1907,0.181,0.1809,0.1839,0.1841,0.1842,0.1904,0,0.1278,0.1326,0.1357,0.1408,0.1435,0.1481,0.1521,0.1569,0.1614,0.1668,0.1704,0.1754,0.1752,0.1783,0.1811,0.1833,0.1862,0.1822,0.1857,0.1858,0.1769,0.1816,0.1847,0.191,0.1912,0.1914,0.1915,0,0.1276,0.1313,0.1364,0.1433,0.145,0.1487,0.1563,0.1603,0.1676,0.1716,0.1774,0.1804,0.1865,0.185,0.1918,0.1898,0.1912,0.192,0.1922,0.1815,0.1776,0.1855,0.193,0.1929,0.1928,0.1927,0.1926,0,0.1243,0.1316,0.136,0.1384,0.1462,0.1503,0.1549,0.1622,0.1666,0.1755,0.1801,0.1866,0.1916,0.1946,0.1979,0.196,0.2042,0.201,0.1935,0.1928,0.1972,0.1963,0.2055,0.2055,0.2055,0.2054,0.2054,0,0.1225,0.1264,0.1356,0.1379,0.1436,0.1498,0.1564,0.1621,0.1705,0.1754,0.183,0.188,0.1946,0.1998,0.2008,0.2004,0.207,0.195,0.194,0.1994,0.1988,0.1978,0.1968,0.2057,0.2056,0.2056,0.2055,0,0.1174,0.1236,0.1291,0.1388,0.1421,0.1463,0.1566,0.1609,0.1703,0.1772,0.1808,0.1913,0.198,0.2032,0.2087,0.2034,0.2041,0.2022,0.2094,0.2085,0.1899,0.1892,0.1933,0.193,0.1928,0.1926,0.1924,0,0.115,0.1176,0.1285,0.132,0.1369,0.1444,0.149,0.1594,0.1636,0.1777,0.18,0.1911,0.1967,0.1966,0.203,0.2046,0.2022,0.2008,0.1933,0.1902,0.1889,0.1885,0.1881,0.192,0.1919,0.1919,0.1918,0,0.11,0.1151,0.1198,0.1271,0.1331,0.1386,0.1464,0.1483,0.1597,0.1701,0.1748,0.1787,0.1862,0.19,0.1934,0.1939,0.2003,0.1982,0.1986,0.1915,0.1887,0.1875,0.1874,0.191,0.1911,0.1912,0.1912,0,0.1065,0.1085,0.1155,0.1208,0.1278,0.1308,0.1357,0.1409,0.1462,0.1606,0.1622,0.1741,0.1841,0.1847,0.1881,0.1881,0.1844,0.1768,0.1782,0.1792,0.1718,0.166,0.1612,0,0,0,0,0,0.1022,0.1038,0.1085,0.1137,0.1201,0.1244,0.133,0.138,0.1486,0.1478,0.1541,0.1602,0.1654,0.1721,0.1693,0.1831,0.1857,0.1791,0.1778,0.1863,0.1873,0.1799,0,0,0,0,0,0,0.0993,0.1036,0.1057,0.1066,0.1088,0.1148,0.1199,0.1275,0.127,0.1384,0.142,0.1511,0.1587,0.1654,0.1664,0.1684,0.1645,0.1867,0.1863,0.1858,0.1866,0.1874,0.1802,0,0,0,0,0]},{"header":{"parameterUnit":"m.s-1","parameterCategory":2,"la1":30.2991,"la2":30.254,"lo1":-89.0895,"lo2":-89.0444,"dy":0.0017,"dx":0.0017,"nx":28,"ny":28,"refTime":"2023-11-01T21:00:00:Z","depth":"4","parameterNumber":3,"parameterNumberName":"V-component_of_CURRENTS"},"data":[0,0,0,0,0,0,0,0,0,0,0,0,0,0,0,0,0,0,0,0,0,0,0,0,0,0,0,0,0,0,0,0,0,0,0,0,0,0,0,0,0,0,0,0,0,0,0,0,0,0,0,0,0,0,0,0,0,0,0.0013,0.0013,0,-0.0012,-0.0013,-0.0013,-0.0037,-0.0037,-0.0037,-0.0038,-0.0069,-0.007,-0.0071,0,0,0,0,0,0,0,0,0,0,0,0,0,0.0027,0.0027,0.0014,0.0013,0.0013,-0.0012,-0.0013,-0.0013,-0.0037,-0.0037,-0.0038,-0.0038,-0.0069,-0.007,-0.0071,0,0,0,0,0,0,0,0,0,0,0,0,0,0.0013,0.0027,0.0014,-0.0002,-0.0004,-0.0012,-0.0013,-0.0013,-0.0037,-0.0037,-0.0038,-0.0038,-0.0069,-0.007,-0.0071,-0.0067,0,0,-0.0073,-0.0074,0,0,0,0,0,0,0,0,0.0014,0.0013,0.0001,-0.0001,-0.0003,-0.0022,-0.002,-0.0031,-0.0037,-0.0024,-0.0038,-0.0038,-0.0054,-0.0056,-0.006,-0.0068,-0.007,-0.0073,-0.0074,-0.0074,-0.0074,0,0,0,0,0,0,0,0.0015,0.0014,0.0003,0.0,-0.0002,-0.0013,-0.0015,-0.0022,-0.0036,-0.0025,-0.0027,-0.003,-0.0055,-0.0059,-0.0061,-0.007,-0.0073,-0.0074,-0.0075,-0.0075,-0.0075,-0.0075,0,0,0,0,0,0,0.002,0.0015,0.0004,0.0003,0.0005,-0.0013,-0.0015,-0.0015,-0.0036,-0.004,-0.0029,-0.0031,-0.0057,-0.006,-0.0062,-0.0061,-0.0074,-0.0075,-0.0076,-0.0076,-0.0075,-0.0075,0,0,0,0,0,0,0.002,0.0019,0.0005,0.0008,0.0005,-0.0012,-0.0012,-0.0016,-0.0023,-0.0039,-0.0043,-0.0034,-0.0057,-0.0061,-0.0067,-0.0063,-0.0075,-0.0076,-0.0076,-0.0075,-0.0075,-0.0058,0,0,0,0,0,0,0.0021,0.002,0.0022,0.0008,0.0005,0.0003,-0.0012,-0.0016,-0.0024,-0.0026,-0.0044,-0.0047,-0.0058,-0.0065,-0.0067,-0.0064,-0.0077,-0.0077,-0.0076,-0.0075,-0.006,-0.0057,-0.0055,0,0,0,0,0,0.0021,0.0028,0.0022,0.0021,0.0009,0.0003,0.0001,-0.0014,-0.0023,-0.0023,-0.0035,-0.0047,-0.0061,-0.0066,-0.0068,-0.0065,-0.0077,-0.0076,-0.0075,-0.0061,-0.0058,-0.0055,0,0,0,0,0,0,0.0036,0.0026,0.0019,0.0022,0.0014,-0.0001,-0.0002,-0.0013,-0.0022,-0.0025,-0.0043,-0.0046,-0.0051,-0.0057,-0.0062,-0.0061,-0.007,-0.0069,-0.0058,-0.0055,-0.0053,-0.0056,-0.0078,0,0,0,0,0,0.0041,0.0042,0.003,0.0032,0.0029,0.0013,0.0009,-0.0001,-0.0012,-0.0017,-0.003,-0.004,-0.0047,-0.0051,-0.0058,-0.0057,-0.0079,-0.0055,-0.0053,-0.0051,-0.0054,-0.0088,-0.009,-0.0071,-0.0071,-0.0071,0,0,0.0047,0.0042,0.0042,0.0036,0.0027,0.0029,0.001,0.0005,0.0005,-0.0018,-0.0022,-0.0035,-0.0045,-0.0046,-0.0048,-0.0052,-0.0066,-0.005,-0.0048,-0.0053,-0.0087,-0.0089,-0.0091,-0.007,-0.007,-0.007,0,0,0.0062,0.0056,0.0063,0.0057,0.0047,0.004,0.0039,0.0024,0.0016,0.0011,-0.0005,-0.0018,-0.0025,-0.0036,-0.004,-0.0029,-0.0055,-0.0026,-0.0017,-0.0049,-0.0051,-0.0054,-0.0078,-0.0083,-0.0023,-0.0023,-0.0023,0,0.007,0.0076,0.0064,0.0068,0.0068,0.0047,0.0055,0.0045,0.0029,0.0025,0.0013,-0.0008,-0.0021,-0.0026,-0.0024,-0.0026,-0.0046,-0.0027,-0.0048,-0.0051,-0.0053,-0.0078,-0.0084,-0.0022,-0.0022,-0.0022,-0.0022,0,0.0089,0.0093,0.0097,0.0097,0.0096,0.0098,0.0086,0.008,0.0066,0.0054,0.004,0.0016,0.0003,-0.0002,-0.0011,-0.0028,-0.0036,-0.0044,-0.0058,-0.0055,-0.008,-0.0086,-0.002,-0.0021,-0.0021,-0.0021,0,0,0.0108,0.011,0.0111,0.0119,0.0111,0.0116,0.0114,0.0109,0.0109,0.0083,0.0078,0.0053,0.0032,0.0025,0.0008,-0.0022,-0.0059,-0.0039,-0.0041,-0.0069,-0.0128,-0.0124,-0.013,-0.0073,-0.0074,-0.0075,-0.0137,0,0.0126,0.0143,0.0139,0.0159,0.0168,0.0153,0.0157,0.0149,0.0133,0.0123,0.0086,0.0076,0.0047,0.004,0.0003,-0.0039,-0.0075,-0.0042,-0.0122,-0.0125,-0.0127,-0.0137,-0.0078,-0.0142,-0.0143,-0.0144,-0.0145,0,0.0146,0.0155,0.0178,0.0192,0.0195,0.0204,0.0207,0.0206,0.0183,0.017,0.0142,0.0116,0.0076,0.0046,-0.0041,-0.0018,-0.0074,-0.0115,-0.0119,-0.0127,-0.0132,-0.0147,-0.0156,-0.0155,-0.0154,-0.0153,-0.0153,0,0.0168,0.0185,0.0206,0.0209,0.022,0.0228,0.0231,0.0219,0.0227,0.0197,0.0198,0.0141,0.0119,0.0037,-0.0046,-0.0046,-0.0146,-0.0156,-0.0209,-0.0209,-0.0202,-0.0199,-0.0232,-0.0232,-0.0232,-0.0231,-0.0231,0,0.0188,0.0206,0.0218,0.0229,0.0258,0.0253,0.0274,0.0267,0.0264,0.028,0.0224,0.0221,0.0113,0.005,-0.0038,-0.0137,-0.0143,-0.0214,-0.0228,-0.0191,-0.0186,-0.0206,-0.0202,-0.0234,-0.0233,-0.0233,-0.0232,0,0.0207,0.0214,0.0241,0.0259,0.0269,0.0287,0.0313,0.0328,0.0317,0.0334,0.033,0.028,0.0192,0.0083,-0.0046,-0.0115,-0.0217,-0.0254,-0.02,-0.021,-0.0261,-0.0256,-0.0321,-0.0321,-0.0322,-0.0322,-0.0322,0,0.0217,0.0233,0.0266,0.0287,0.0297,0.0323,0.0345,0.0352,0.0373,0.0373,0.0388,0.0318,0.0266,0.0097,-0.0031,-0.0203,-0.023,-0.0282,-0.0285,-0.0265,-0.0273,-0.0266,-0.0261,-0.0323,-0.0323,-0.0323,-0.0323,0,0.0237,0.0249,0.0272,0.0314,0.0346,0.0382,0.0414,0.0438,0.0449,0.0447,0.044,0.0352,0.0253,0.0109,-0.0026,-0.0149,-0.0247,-0.0287,-0.0287,-0.0291,-0.0268,-0.0274,-0.0268,-0.0324,-0.0324,-0.0324,-0.0324,0,0.0252,0.027,0.0302,0.0339,0.0383,0.0427,0.0441,0.0469,0.049,0.0494,0.049,0.0381,0.0318,0.0137,0.0015,-0.0109,-0.0146,-0.0185,-0.0191,-0.0192,-0.0139,-0.0091,-0.011,0,0,0,0,0,0.0264,0.0285,0.0324,0.0365,0.041,0.0437,0.0485,0.0497,0.0514,0.052,0.0508,0.0417,0.0241,0.0166,0.0042,-0.0011,-0.018,-0.0162,-0.0231,-0.0332,-0.033,-0.0291,0,0,0,0,0,0,0.0271,0.0307,0.0324,0.0381,0.0413,0.0466,0.0499,0.0513,0.0515,0.0516,0.0427,0.0385,0.0211,0.0312,0.004,0.0001,-0.006,-0.0245,-0.0248,-0.0333,-0.0331,-0.033,-0.029,0,0,0,0,0]}]]